Location: Newark
(31.5350°N, 35.0986°E)
Time: 20:40:59
(UTC+00:00)

Explorer 7 - Pass Details

Date: 26 October 2019
Orbit: 485 x 680 km, 50.3° (Epoch: 18 November)

Event Time Altitude Azimuth Distance (km) Brightness Sun altitude
Rises 12:17:09 0° 326° (NW) 2,566 10.2 29.5°
Reaches altitude 10° 12:19:43 10° 343° (NNW) 1,700 9.2 29.1°
Maximum altitude 12:22:40 21° 33° (NNE) 1,195 8.2 28.6°
Drops below altitude 10° 12:25:43 10° 84° (E) 1,759 9.0 28.1°
Sets 12:28:24 0° 100° (E) 2,684 10.0 27.6°
